CZ-6A DEB, 64643

Orbit data source: Space-Track

CZ-6A DEB, 64643 is space debris in LEO originally from a launch on Tue, 06 Aug 2024 UTC launched from the Taiyaun Space Center, China (TSC). Debris objects in space refer to the collection of defunct objects orbiting the Earth. Examples of debris include non-operational satellites, rocket bodies, and fragments generated from explosions, collisions, or faulty payload assembly.

Loading next visibility...
Identifier
64643, 2024-140AEH
Orbit
LEO
Country
Flag of CNCN / PRC
Related business
Manufacturer
SAST
Mission
Spacecraft
Bus & Motor
Unknown
Mass
Unknown
Launch date (UTC)
2024-08-06 (2 years ago)
Launch vehicle
Unknown
Launch site
Taiyaun Space Center, China (TSC)
Object type
Payload
Rocket body
Debris
Shape & HBR
Unknown shape, 0.1 m
Radar Cross Section
Small (<0.1 m²)

Expand to show TLE details & history
Last TLE update: 17 hours ago

TLE from 17 hours ago
0 CZ-6A DEB
1 64643U 24140AEH 26118.43840918  .00002523  00000-0  10063-2 0  9993
2 64643  89.1432 290.6211 0073393  33.8632 326.7215 14.26825948 82907
Epoch: 2026-04-28T10:31Z
TLE epoch observation values (Epoch: 2026-04-28T10:31:18.553Z)
Latitude
-0.0001°
Longitude
-83.61992°
Altitude
761.474 km
Speed
7.496 km/s
True Right ascension
19h 22m 29s
True Declination
0° 00' 00"
Sunlit
Object was in daylight at epoch
Visualization orbit readout
Latitude
Unknown
Longitude
Unknown
Altitude
Unknown
Speed
Unknown
Apparent Right ascension
Unknown
Apparent Declination
Unknown
Sunlit
N/A
Visualization observer readout
Local Sidereal Time
10:59:24
Azimuth
Unknown
Elevation
Unknown
Doppler factor
Unknown
Orbital elements
Apogee altitude
851.978 km
Perigee altitude
746.623 km
Semi-major axis
7,177.438 km
Eccentricity
0.00734
Inclination
89.1432°
RAAN
290.6211°
Arg. of periapsis
33.8632°
True anomaly
326.25646°
Mean anomaly
326.7215°
Eccentric anomaly
326.48934°
Mean motion
3.56935 °/min
Orbital period
100.86 mins
BSTAR
0.0010063
Loading maneuver chart data...
Computing Atmospheric mass density...
Loading historical data...
Loading historical data...
Loading historical data...
Loading historical data...
Loading historical data...
Loading historical data...
Loading historical data...

Documentation

Showing up to 5 results
|